Time,TemperatureF,DewpointF,PressureIn,WindDirection,WindDirectionDegrees,WindSpeedMPH,WindSpeedGustMPH,Humidity,HourlyPrecipIn,Conditions,Clouds,dailyrainin,SoftwareType,DateUTC
2013-04-20 00:01:00,65.5,61.6,29.18,SSW,203,6.3,16.1,87,0.00,,,0.00,WUHU216HW,2013-04-20 04:01:00,
2013-04-20 00:02:00,65.5,61.6,29.17,SSW,203,4.9,16.1,87,0.00,,,0.00,WUHU216HW,2013-04-20 04:02:00,
2013-04-20 00:07:00,65.7,61.8,29.17,SSW,203,3.1,16.1,87,0.00,,,0.00,WUHU216HW,2013-04-20 04:07:00,
2013-04-20 00:12:00,65.7,61.8,29.18,WSW,248,7.2,10.5,87,0.00,,,0.00,WUHU216HW,2013-04-20 04:12:00,
2013-04-20 00:18:00,65.3,61.8,29.18,SW,225,1.1,10.5,88,0.02,,,0.02,WUHU216HW,2013-04-20 04:18:00,
2013-04-20 00:23:00,64.8,61.2,29.17,SSW,203,4.3,6.9,88,0.03,,,0.03,WUHU216HW,2013-04-20 04:23:00,
2013-04-20 00:28:00,64.4,61.6,29.18,South,180,4.5,6.9,90,0.03,,,0.03,WUHU216HW,2013-04-20 04:28:00,
2013-04-20 00:33:00,64.1,60.8,29.18,SW,225,1.3,6.7,89,0.04,,,0.04,WUHU216HW,2013-04-20 04:33:00,
2013-04-20 00:38:00,63.9,60.7,29.18,SSW,203,2.2,4.7,89,0.05,,,0.06,WUHU216HW,2013-04-20 04:38:00,
2013-04-20 00:43:00,63.7,60.8,29.18,SE,135,2.9,6.3,90,0.08,,,0.08,WUHU216HW,2013-04-20 04:43:00,
2013-04-20 00:48:00,63.5,60.7,29.18,SSW,203,4.7,6.3,90,0.09,,,0.10,WUHU216HW,2013-04-20 04:48:00,
2013-04-20 00:54:00,63.5,60.9,29.18,South,180,3.1,5.1,91,0.09,,,0.10,WUHU216HW,2013-04-20 04:54:00,
2013-04-20 00:59:00,63.4,60.8,29.17,South,180,2.2,6.0,91,0.09,,,0.10,WUHU216HW,2013-04-20 04:59:00,
2013-04-20 01:04:00,63.4,61.0,29.17,SSE,158,5.1,8.5,92,0.10,,,0.10,WUHU216HW,2013-04-20 05:04:00,
2013-04-20 01:09:00,63.2,60.6,29.17,SSW,203,2.5,8.5,91,0.10,,,0.10,WUHU216HW,2013-04-20 05:09:00,
2013-04-20 01:14:00,63.2,60.6,29.17,SW,225,2.0,6.3,91,0.08,,,0.10,WUHU216HW,2013-04-20 05:14:00,
2013-04-20 01:19:00,63.0,60.4,29.17,SSW,203,3.1,4.3,91,0.07,,,0.10,WUHU216HW,2013-04-20 05:19:00,
2013-04-20 01:24:00,63.0,60.7,29.17,SSW,203,2.5,4.7,92,0.07,,,0.10,WUHU216HW,2013-04-20 05:24:00,
2013-04-20 01:29:00,63.0,60.7,29.17,SW,225,2.7,4.7,92,0.07,,,0.11,WUHU216HW,2013-04-20 05:29:00,
2013-04-20 01:34:00,62.8,60.5,29.17,SSW,203,4.0,7.4,92,0.06,,,0.11,WUHU216HW,2013-04-20 05:34:00,
2013-04-20 01:40:00,62.6,60.7,29.17,SSW,203,2.5,7.6,93,0.04,,,0.11,WUHU216HW,2013-04-20 05:40:00,
2013-04-20 01:45:00,62.6,60.3,29.17,SW,225,3.6,7.8,92,0.03,,,0.11,WUHU216HW,2013-04-20 05:45:00,
2013-04-20 01:50:00,62.5,60.1,29.17,WSW,248,0.4,7.8,92,0.02,,,0.11,WUHU216HW,2013-04-20 05:50:00,
2013-04-20 01:55:00,62.5,60.1,29.16,SW,225,1.3,5.6,92,0.02,,,0.11,WUHU216HW,2013-04-20 05:55:00,
2013-04-20 02:00:00,62.3,59.9,29.15,SW,225,0.4,4.7,92,0.01,,,0.11,WUHU216HW,2013-04-20 06:00:00,
2013-04-20 02:05:00,62.3,59.9,29.15,South,180,2.5,4.0,92,0.01,,,0.11,WUHU216HW,2013-04-20 06:05:00,
2013-04-20 02:10:00,62.3,59.9,29.15,SSW,203,0.4,4.0,92,0.01,,,0.11,WUHU216HW,2013-04-20 06:10:00,
2013-04-20 02:15:00,62.3,59.9,29.15,SSW,203,0.0,2.7,92,0.01,,,0.11,WUHU216HW,2013-04-20 06:15:00,
2013-04-20 02:21:00,62.1,59.8,29.15,West,270,1.1,1.1,92,0.01,,,0.11,WUHU216HW,2013-04-20 06:21:00,
2013-04-20 02:26:00,62.1,60.1,29.17,North,0,1.8,3.4,93,0.00,,,0.11,WUHU216HW,2013-04-20 06:26:00,
2013-04-20 02:31:00,59.9,56.1,29.17,NNW,338,3.8,7.6,87,0.00,,,0.11,WUHU216HW,2013-04-20 06:31:00,
2013-04-20 02:36:00,58.0,53.8,29.17,West,270,4.5,7.6,86,0.01,,,0.13,WUHU216HW,2013-04-20 06:36:00,
2013-04-20 02:41:00,56.2,52.0,29.17,NW,315,8.9,8.9,86,0.02,,,0.13,WUHU216HW,2013-04-20 06:41:00,
2013-04-20 02:46:00,55.1,51.2,29.16,North,0,5.4,8.9,87,0.03,,,0.15,WUHU216HW,2013-04-20 06:46:00,
2013-04-20 02:51:00,54.4,50.6,29.17,NW,315,6.3,9.8,87,0.04,,,0.15,WUHU216HW,2013-04-20 06:51:00,
2013-04-20 02:56:00,54.0,50.5,29.17,NNW,338,4.5,9.8,88,0.04,,,0.15,WUHU216HW,2013-04-20 06:56:00,
2013-04-20 03:02:00,53.6,50.1,29.17,WNW,293,5.4,10.7,88,0.04,,,0.15,WUHU216HW,2013-04-20 07:02:00,
2013-04-20 03:07:00,53.5,50.3,29.17,WNW,293,5.1,10.7,89,0.04,,,0.15,WUHU216HW,2013-04-20 07:07:00,
2013-04-20 03:12:00,53.1,50.0,29.17,NW,315,9.4,9.4,89,0.04,,,0.15,WUHU216HW,2013-04-20 07:12:00,
2013-04-20 03:17:00,52.9,49.8,29.17,West,270,3.6,9.4,89,0.04,,,0.15,WUHU216HW,2013-04-20 07:17:00,
2013-04-20 03:22:00,52.7,49.6,29.17,NW,315,7.8,9.4,89,0.05,,,0.17,WUHU216HW,2013-04-20 07:22:00,
2013-04-20 03:27:00,52.6,49.7,29.17,WNW,293,4.5,9.4,90,0.05,,,0.17,WUHU216HW,2013-04-20 07:27:00,
2013-04-20 03:32:00,52.2,49.1,29.16,NW,315,6.0,8.7,89,0.05,,,0.17,WUHU216HW,2013-04-20 07:32:00,
2013-04-20 03:37:00,52.2,49.1,29.16,NW,315,3.8,7.4,89,0.05,,,0.17,WUHU216HW,2013-04-20 07:37:00,
2013-04-20 03:42:00,52.0,48.9,29.17,NNW,338,4.7,8.5,89,0.03,,,0.17,WUHU216HW,2013-04-20 07:42:00,
2013-04-20 03:47:00,51.8,48.7,29.17,NNW,338,6.3,8.5,89,0.02,,,0.17,WUHU216HW,2013-04-20 07:47:00,
2013-04-20 03:53:00,51.5,48.3,29.18,West,270,4.0,7.8,89,0.02,,,0.17,WUHU216HW,2013-04-20 07:53:00,
2013-04-20 03:58:00,51.5,48.3,29.18,North,0,3.8,7.8,89,0.02,,,0.17,WUHU216HW,2013-04-20 07:58:00,
2013-04-20 04:03:00,51.1,48.0,29.19,NNW,338,7.4,7.4,89,0.02,,,0.17,WUHU216HW,2013-04-20 08:03:00,
2013-04-20 04:08:00,50.8,47.6,29.18,WNW,293,3.4,7.4,89,0.03,,,0.19,WUHU216HW,2013-04-20 08:08:00,
2013-04-20 04:13:00,50.6,47.4,29.18,West,270,2.5,7.4,89,0.03,,,0.19,WUHU216HW,2013-04-20 08:13:00,
2013-04-20 04:18:00,50.4,47.3,29.17,ENE,68,0.2,7.4,89,0.03,,,0.20,WUHU216HW,2013-04-20 08:18:00,
2013-04-20 04:23:00,50.2,47.3,29.18,SE,135,3.6,5.6,90,0.04,,,0.21,WUHU216HW,2013-04-20 08:23:00,
2013-04-20 04:29:00,50.0,47.2,29.19,NW,315,0.7,4.9,90,0.04,,,0.21,WUHU216HW,2013-04-20 08:29:00,
2013-04-20 04:34:00,50.0,47.2,29.18,East,90,1.1,4.9,90,0.03,,,0.21,WUHU216HW,2013-04-20 08:34:00,
2013-04-20 04:39:00,50.0,47.2,29.19,NNE,23,0.0,1.8,90,0.03,,,0.21,WUHU216HW,2013-04-20 08:39:00,
2013-04-20 04:44:00,50.0,47.4,29.20,WNW,293,3.4,3.4,91,0.04,,,0.22,WUHU216HW,2013-04-20 08:44:00,
2013-04-20 04:49:00,49.7,47.2,29.19,NW,315,4.7,9.2,91,0.06,,,0.24,WUHU216HW,2013-04-20 08:49:00,
2013-04-20 04:54:00,49.3,46.8,29.20,NW,315,2.9,9.2,91,0.07,,,0.25,WUHU216HW,2013-04-20 08:54:00,
2013-04-20 04:59:00,49.0,46.4,29.20,NE,45,1.3,4.7,91,0.08,,,0.26,WUHU216HW,2013-04-20 08:59:00,
2013-04-20 05:04:00,48.6,46.2,29.20,NNE,23,5.4,5.4,91,0.09,,,0.27,WUHU216HW,2013-04-20 09:04:00,
2013-04-20 05:09:00,48.4,46.0,29.21,West,270,3.6,5.4,91,0.09,,,0.28,WUHU216HW,2013-04-20 09:09:00,
2013-04-20 05:14:00,48.2,45.8,29.21,NE,45,2.7,3.6,91,0.09,,,0.29,WUHU216HW,2013-04-20 09:14:00,
2013-04-20 05:20:00,47.9,45.5,29.21,SE,135,0.4,4.7,91,0.11,,,0.31,WUHU216HW,2013-04-20 09:20:00,
2013-04-20 05:25:00,47.5,44.8,29.20,North,0,5.8,5.8,90,0.11,,,0.32,WUHU216HW,2013-04-20 09:25:00,
2013-04-20 05:30:00,47.2,44.5,29.21,WNW,293,4.7,9.8,90,0.11,,,0.32,WUHU216HW,2013-04-20 09:30:00,
2013-04-20 05:35:00,47.0,44.3,29.21,NNW,338,1.8,9.8,90,0.12,,,0.33,WUHU216HW,2013-04-20 09:35:00,
2013-04-20 05:40:00,46.8,44.1,29.22,North,0,3.4,4.9,90,0.11,,,0.33,WUHU216HW,2013-04-20 09:40:00,
2013-04-20 05:45:00,46.6,43.9,29.22,NW,315,3.6,6.3,90,0.10,,,0.33,WUHU216HW,2013-04-20 09:45:00,
2013-04-20 05:50:00,46.4,43.7,29.24,North,0,3.4,6.3,90,0.10,,,0.34,WUHU216HW,2013-04-20 09:50:00,
2013-04-20 05:55:00,46.4,43.7,29.26,WNW,293,1.8,6.9,90,0.09,,,0.34,WUHU216HW,2013-04-20 09:55:00,
2013-04-20 06:01:00,46.3,43.6,29.25,North,0,1.3,6.9,90,0.09,,,0.35,WUHU216HW,2013-04-20 10:01:00,
2013-04-20 06:06:00,46.1,43.4,29.24,North,0,1.1,5.4,90,0.08,,,0.36,WUHU216HW,2013-04-20 10:06:00,
2013-04-20 06:11:00,45.7,43.0,29.25,ESE,113,0.7,5.4,90,0.07,,,0.36,WUHU216HW,2013-04-20 10:11:00,
2013-04-20 06:16:00,45.5,42.8,29.26,North,0,0.9,4.0,90,0.06,,,0.36,WUHU216HW,2013-04-20 10:16:00,
2013-04-20 06:21:00,45.5,42.8,29.25,NW,315,0.4,4.0,90,0.04,,,0.36,WUHU216HW,2013-04-20 10:21:00,
2013-04-20 06:26:00,45.4,42.9,29.25,NNW,338,2.0,5.6,91,0.04,,,0.36,WUHU216HW,2013-04-20 10:26:00,
2013-04-20 06:31:00,45.2,42.5,29.26,NW,315,0.0,5.6,90,0.03,,,0.36,WUHU216HW,2013-04-20 10:31:00,
2013-04-20 06:37:00,45.2,42.8,29.26,NW,315,2.2,2.9,91,0.03,,,0.36,WUHU216HW,2013-04-20 10:37:00,
2013-04-20 06:42:00,45.0,42.6,29.26,North,0,0.4,2.9,91,0.03,,,0.36,WUHU216HW,2013-04-20 10:42:00,
2013-04-20 06:47:00,45.0,42.3,29.27,NW,315,2.2,4.9,90,0.03,,,0.36,WUHU216HW,2013-04-20 10:47:00,
2013-04-20 06:52:00,44.8,42.1,29.28,SSE,158,0.9,4.9,90,0.02,,,0.36,WUHU216HW,2013-04-20 10:52:00,
2013-04-20 06:57:00,44.8,42.1,29.29,NNW,338,3.4,3.4,90,0.03,,,0.37,WUHU216HW,2013-04-20 10:57:00,
2013-04-20 07:02:00,44.6,41.9,29.29,North,0,2.5,3.4,90,0.03,,,0.37,WUHU216HW,2013-04-20 11:02:00,
2013-04-20 07:07:00,44.6,41.9,29.30,West,270,0.7,3.1,90,0.02,,,0.38,WUHU216HW,2013-04-20 11:07:00,
2013-04-20 07:12:00,44.5,41.5,29.30,NNE,23,2.2,2.2,89,0.02,,,0.38,WUHU216HW,2013-04-20 11:12:00,
2013-04-20 07:17:00,44.5,41.8,29.31,North,0,0.4,4.3,90,0.02,,,0.38,WUHU216HW,2013-04-20 11:17:00,
2013-04-20 07:22:00,44.5,41.8,29.31,WNW,293,1.6,4.3,90,0.02,,,0.38,WUHU216HW,2013-04-20 11:22:00,
2013-04-20 07:28:00,44.5,41.8,29.31,North,0,2.2,4.7,90,0.03,,,0.39,WUHU216HW,2013-04-20 11:28:00,
2013-04-20 07:33:00,44.5,41.5,29.31,NNW,338,4.3,4.7,89,0.03,,,0.39,WUHU216HW,2013-04-20 11:33:00,
2013-04-20 07:38:00,44.5,41.5,29.31,NW,315,0.4,4.7,89,0.03,,,0.39,WUHU216HW,2013-04-20 11:38:00,
2013-04-20 07:43:00,44.5,41.5,29.32,NNW,338,2.5,4.3,89,0.03,,,0.39,WUHU216HW,2013-04-20 11:43:00,
2013-04-20 07:48:00,44.3,41.3,29.32,NNW,338,0.0,4.7,89,0.03,,,0.39,WUHU216HW,2013-04-20 11:48:00,
2013-04-20 07:53:00,44.5,41.5,29.32,NW,315,0.4,4.7,89,0.02,,,0.39,WUHU216HW,2013-04-20 11:53:00,
2013-04-20 07:58:00,44.3,41.0,29.32,NW,315,2.0,4.7,88,0.02,,,0.39,WUHU216HW,2013-04-20 11:58:00,
2013-04-20 08:04:00,44.5,41.1,29.32,NW,315,2.2,4.7,88,0.01,,,0.39,WUHU216HW,2013-04-20 12:04:00,
2013-04-20 08:09:00,44.5,41.1,29.33,SSW,203,0.9,2.7,88,0.01,,,0.39,WUHU216HW,2013-04-20 12:09:00,
2013-04-20 08:14:00,44.6,41.3,29.33,WSW,248,1.1,3.1,88,0.01,,,0.39,WUHU216HW,2013-04-20 12:14:00,
2013-04-20 08:19:00,44.6,41.9,29.33,WNW,293,0.4,3.1,90,0.01,,,0.39,WUHU216HW,2013-04-20 12:19:00,
2013-04-20 08:24:00,45.0,42.3,29.34,NNW,338,0.4,2.2,90,0.01,,,0.39,WUHU216HW,2013-04-20 12:24:00,
2013-04-20 08:29:00,44.8,41.5,29.33,NNE,23,1.8,4.0,88,0.00,,,0.39,WUHU216HW,2013-04-20 12:29:00,
2013-04-20 08:34:00,45.0,40.8,29.33,West,270,1.8,4.7,85,0.00,,,0.39,WUHU216HW,2013-04-20 12:34:00,
2013-04-20 08:39:00,45.0,41.0,29.32,NW,315,1.6,4.7,86,0.00,,,0.39,WUHU216HW,2013-04-20 12:39:00,
2013-04-20 08:44:00,45.2,41.0,29.33,NNW,338,2.2,5.1,85,0.00,,,0.39,WUHU216HW,2013-04-20 12:44:00,
2013-04-20 08:50:00,45.4,40.9,29.32,NW,315,4.5,5.1,84,0.00,,,0.39,WUHU216HW,2013-04-20 12:50:00,
2013-04-20 08:55:00,45.7,41.2,29.33,SSW,203,0.4,4.5,84,0.00,,,0.39,WUHU216HW,2013-04-20 12:55:00,
2013-04-20 09:00:00,45.9,40.1,29.33,NNW,338,2.7,4.5,80,0.00,,,0.39,WUHU216HW,2013-04-20 13:00:00,
2013-04-20 09:05:00,46.1,40.6,29.32,WNW,293,4.0,4.7,81,0.00,,,0.39,WUHU216HW,2013-04-20 13:05:00,
2013-04-20 09:10:00,45.9,39.2,29.32,North,0,6.0,7.8,77,0.00,,,0.39,WUHU216HW,2013-04-20 13:10:00,
2013-04-20 09:15:00,45.9,39.8,29.33,NNW,338,2.7,7.8,79,0.00,,,0.39,WUHU216HW,2013-04-20 13:15:00,
2013-04-20 09:20:00,46.1,39.3,29.32,NNE,23,1.8,5.4,77,0.00,,,0.39,WUHU216HW,2013-04-20 13:20:00,
2013-04-20 09:25:00,46.4,39.7,29.33,NNW,338,0.4,5.1,77,0.00,,,0.39,WUHU216HW,2013-04-20 13:25:00,
2013-04-20 09:30:00,46.4,38.3,29.34,WNW,293,2.7,6.7,73,0.00,,,0.39,WUHU216HW,2013-04-20 13:30:00,
2013-04-20 09:36:00,46.3,38.1,29.33,North,0,2.9,8.3,73,0.00,,,0.39,WUHU216HW,2013-04-20 13:36:00,
2013-04-20 09:41:00,46.1,38.3,29.34,North,0,2.2,8.3,74,0.00,,,0.39,WUHU216HW,2013-04-20 13:41:00,
2013-04-20 09:46:00,46.3,38.1,29.34,NNW,338,2.0,6.7,73,0.00,,,0.39,WUHU216HW,2013-04-20 13:46:00,
2013-04-20 09:51:00,46.6,38.4,29.34,WNW,293,3.4,6.7,73,0.00,,,0.39,WUHU216HW,2013-04-20 13:51:00,
2013-04-20 09:56:00,47.5,38.6,29.34,NW,315,1.1,6.7,71,0.00,,,0.39,WUHU216HW,2013-04-20 13:56:00,
2013-04-20 10:01:00,48.8,40.4,29.34,West,270,5.1,8.1,73,0.00,,,0.39,WUHU216HW,2013-04-20 14:01:00,
2013-04-20 10:06:00,49.0,38.8,29.35,West,270,4.5,8.1,68,0.00,,,0.39,WUHU216HW,2013-04-20 14:06:00,
2013-04-20 10:12:00,49.3,40.3,29.35,West,270,2.0,6.7,71,0.00,,,0.39,WUHU216HW,2013-04-20 14:12:00,
2013-04-20 10:17:00,50.0,40.7,29.35,West,270,1.1,5.1,70,0.00,,,0.39,WUHU216HW,2013-04-20 14:17:00,
2013-04-20 10:22:00,50.6,40.4,29.35,NNE,23,3.8,6.3,68,0.00,,,0.39,WUHU216HW,2013-04-20 14:22:00,
2013-04-20 10:27:00,51.3,40.3,29.35,NW,315,3.1,6.3,66,0.00,,,0.39,WUHU216HW,2013-04-20 14:27:00,
2013-04-20 10:32:00,51.3,39.5,29.35,West,270,3.4,8.3,64,0.00,,,0.39,WUHU216HW,2013-04-20 14:32:00,
2013-04-20 10:37:00,51.8,40.9,29.36,North,0,2.5,8.3,66,0.00,,,0.39,WUHU216HW,2013-04-20 14:37:00,
2013-04-20 10:42:00,51.8,38.8,29.36,West,270,3.4,7.6,61,0.00,,,0.39,WUHU216HW,2013-04-20 14:42:00,
2013-04-20 10:47:00,51.8,38.8,29.37,NNW,338,6.5,9.4,61,0.00,,,0.39,WUHU216HW,2013-04-20 14:47:00,
2013-04-20 10:52:00,51.8,38.8,29.37,NE,45,2.5,9.4,61,0.00,,,0.39,WUHU216HW,2013-04-20 14:52:00,
2013-04-20 10:57:00,51.5,38.0,29.38,WNW,293,4.0,8.9,60,0.00,,,0.39,WUHU216HW,2013-04-20 14:57:00,
2013-04-20 11:02:00,51.5,38.9,29.38,NW,315,0.7,8.9,62,0.00,,,0.39,WUHU216HW,2013-04-20 15:02:00,
2013-04-20 11:08:00,52.9,40.2,29.38,WSW,248,1.6,8.9,62,0.00,,,0.39,WUHU216HW,2013-04-20 15:08:00,
2013-04-20 11:13:00,53.6,39.3,29.39,West,270,3.4,7.8,58,0.00,,,0.39,WUHU216HW,2013-04-20 15:13:00,
2013-04-20 11:18:00,54.0,39.1,29.38,WSW,248,4.5,8.3,57,0.00,,,0.39,WUHU216HW,2013-04-20 15:18:00,
2013-04-20 11:23:00,53.8,38.9,29.38,West,270,3.4,8.5,57,0.00,,,0.39,WUHU216HW,2013-04-20 15:23:00,
2013-04-20 11:28:00,54.0,38.2,29.39,WNW,293,3.4,8.5,55,0.00,,,0.39,WUHU216HW,2013-04-20 15:28:00,
2013-04-20 11:33:00,53.6,37.4,29.39,WNW,293,3.8,7.6,54,0.00,,,0.39,WUHU216HW,2013-04-20 15:33:00,
2013-04-20 11:38:00,53.8,38.4,29.39,SW,225,6.9,7.6,56,0.00,,,0.39,WUHU216HW,2013-04-20 15:38:00,
2013-04-20 11:43:00,54.5,38.6,29.39,WSW,248,9.4,9.4,55,0.00,,,0.39,WUHU216HW,2013-04-20 15:43:00,
2013-04-20 11:48:00,54.5,38.2,29.39,SW,225,7.4,9.4,54,0.00,,,0.39,WUHU216HW,2013-04-20 15:48:00,
2013-04-20 11:54:00,55.1,39.1,29.39,SW,225,2.9,9.4,55,0.00,,,0.39,WUHU216HW,2013-04-20 15:54:00,
2013-04-20 11:59:00,55.6,38.7,29.39,SW,225,5.4,8.7,53,0.00,,,0.39,WUHU216HW,2013-04-20 15:59:00,
2013-04-20 12:03:00,55.8,38.9,29.40,WSW,248,4.0,8.7,53,0.00,,,0.39,WUHU216HW,2013-04-20 16:03:00,
2013-04-20 12:09:00,55.6,38.2,29.40,NW,315,4.7,5.6,52,0.00,,,0.39,WUHU216HW,2013-04-20 16:09:00,
2013-04-20 12:14:00,55.1,38.6,29.40,West,270,0.7,6.0,54,0.00,,,0.39,WUHU216HW,2013-04-20 16:14:00,
2013-04-20 12:19:00,55.3,38.8,29.40,WSW,248,1.3,6.0,54,0.00,,,0.39,WUHU216HW,2013-04-20 16:19:00,
2013-04-20 12:24:00,56.2,40.1,29.40,SW,225,4.9,6.3,55,0.00,,,0.39,WUHU216HW,2013-04-20 16:24:00,
2013-04-20 12:29:00,56.5,40.1,29.39,WSW,248,2.5,6.9,54,0.00,,,0.39,WUHU216HW,2013-04-20 16:29:00,
2013-04-20 12:34:00,55.4,37.5,29.40,NNW,338,3.8,7.8,51,0.00,,,0.39,WUHU216HW,2013-04-20 16:34:00,
2013-04-20 12:39:00,54.7,36.9,29.40,NW,315,2.5,8.5,51,0.00,,,0.39,WUHU216HW,2013-04-20 16:39:00,
2013-04-20 12:45:00,54.4,37.5,29.40,West,270,2.7,8.5,53,0.00,,,0.39,WUHU216HW,2013-04-20 16:45:00,
2013-04-20 12:50:00,54.9,37.1,29.40,SW,225,5.4,8.5,51,0.00,,,0.39,WUHU216HW,2013-04-20 16:50:00,
2013-04-20 12:55:00,55.1,36.7,29.40,NNW,338,7.6,8.3,50,0.00,,,0.39,WUHU216HW,2013-04-20 16:55:00,
2013-04-20 13:00:00,54.9,36.6,29.40,SSW,203,7.4,8.3,50,0.00,,,0.39,WUHU216HW,2013-04-20 17:00:00,
2013-04-20 13:05:00,55.3,36.4,29.40,NNW,338,3.4,8.1,49,0.00,,,0.39,WUHU216HW,2013-04-20 17:05:00,
2013-04-20 13:10:00,55.4,37.1,29.40,SW,225,5.6,8.5,50,0.00,,,0.39,WUHU216HW,2013-04-20 17:10:00,
2013-04-20 13:15:00,55.1,35.6,29.40,NW,315,6.5,8.5,48,0.00,,,0.39,WUHU216HW,2013-04-20 17:15:00,
2013-04-20 13:21:00,55.4,36.6,29.40,WSW,248,5.4,8.5,49,0.00,,,0.39,WUHU216HW,2013-04-20 17:21:00,
2013-04-20 13:26:00,55.8,37.4,29.40,NW,315,4.5,8.5,50,0.00,,,0.39,WUHU216HW,2013-04-20 17:26:00,
2013-04-20 13:31:00,55.1,32.9,29.40,North,0,5.6,14.3,43,0.00,,,0.39,WUHU216HW,2013-04-20 17:31:00,
2013-04-20 13:36:00,54.7,34.7,29.40,South,180,1.3,14.3,47,0.00,,,0.39,WUHU216HW,2013-04-20 17:36:00,
2013-04-20 13:41:00,54.9,33.9,29.40,NNW,338,7.6,11.0,45,0.00,,,0.39,WUHU216HW,2013-04-20 17:41:00,
2013-04-20 13:46:00,54.5,34.6,29.41,NNW,338,2.9,9.8,47,0.00,,,0.39,WUHU216HW,2013-04-20 17:46:00,
2013-04-20 13:51:00,54.4,33.3,29.41,WNW,293,4.7,9.8,45,0.00,,,0.39,WUHU216HW,2013-04-20 17:51:00,
2013-04-20 13:56:00,54.7,34.7,29.41,WNW,293,2.9,9.8,47,0.00,,,0.39,WUHU216HW,2013-04-20 17:56:00,
2013-04-20 14:01:00,55.3,34.1,29.42,WSW,248,2.2,8.5,45,0.00,,,0.39,WUHU216HW,2013-04-20 18:01:00,
2013-04-20 14:06:00,54.9,33.2,29.42,NW,315,11.2,11.2,44,0.00,,,0.39,WUHU216HW,2013-04-20 18:06:00,
2013-04-20 14:12:00,54.2,33.8,29.42,WSW,248,5.4,11.2,46,0.00,,,0.39,WUHU216HW,2013-04-20 18:12:00,
2013-04-20 14:17:00,54.0,33.0,29.42,North,0,5.6,11.2,45,0.00,,,0.39,WUHU216HW,2013-04-20 18:17:00,
2013-04-20 14:22:00,53.8,33.4,29.42,North,0,5.4,9.2,46,0.00,,,0.39,WUHU216HW,2013-04-20 18:22:00,
2013-04-20 14:27:00,54.2,33.8,29.42,WSW,248,9.2,9.4,46,0.00,,,0.39,WUHU216HW,2013-04-20 18:27:00,
2013-04-20 14:32:00,54.4,33.8,29.42,WSW,248,1.3,9.4,46,0.00,,,0.39,WUHU216HW,2013-04-20 18:32:00,
2013-04-20 14:37:00,54.4,32.8,29.42,NW,315,6.3,11.6,44,0.00,,,0.39,WUHU216HW,2013-04-20 18:37:00,
2013-04-20 14:42:00,54.0,33.0,29.43,NW,315,5.4,11.6,45,0.00,,,0.39,WUHU216HW,2013-04-20 18:42:00,
2013-04-20 14:47:00,54.7,34.2,29.42,WNW,293,6.9,6.9,46,0.00,,,0.39,WUHU216HW,2013-04-20 18:47:00,
2013-04-20 14:52:00,55.6,33.9,29.42,SW,225,4.0,9.8,44,0.00,,,0.39,WUHU216HW,2013-04-20 18:52:00,
2013-04-20 14:57:00,56.2,33.8,29.42,SSW,203,9.2,9.8,43,0.00,,,0.39,WUHU216HW,2013-04-20 18:57:00,
2013-04-20 15:02:00,55.6,32.8,29.42,WNW,293,3.8,9.2,42,0.00,,,0.39,WUHU216HW,2013-04-20 19:02:00,
2013-04-20 15:08:00,55.3,33.0,29.42,West,270,2.0,6.9,43,0.00,,,0.39,WUHU216HW,2013-04-20 19:08:00,
2013-04-20 15:13:00,56.0,34.2,29.42,WSW,248,2.5,6.3,44,0.00,,,0.39,WUHU216HW,2013-04-20 19:13:00,
2013-04-20 15:18:00,55.8,31.9,29.42,NW,315,2.0,8.5,40,0.00,,,0.39,WUHU216HW,2013-04-20 19:18:00,
2013-04-20 15:23:00,55.8,32.4,29.42,WNW,293,3.1,8.5,41,0.00,,,0.39,WUHU216HW,2013-04-20 19:23:00,
2013-04-20 15:28:00,55.8,32.4,29.43,WSW,248,6.9,6.9,41,0.00,,,0.39,WUHU216HW,2013-04-20 19:28:00,
2013-04-20 15:33:00,55.4,32.0,29.43,NW,315,6.9,7.6,41,0.00,,,0.39,WUHU216HW,2013-04-20 19:33:00,
2013-04-20 15:38:00,55.4,32.0,29.43,NNE,23,2.9,7.6,41,0.00,,,0.39,WUHU216HW,2013-04-20 19:38:00,
2013-04-20 15:43:00,55.1,31.8,29.43,NNW,338,5.4,9.2,41,0.00,,,0.39,WUHU216HW,2013-04-20 19:43:00,
2013-04-20 15:49:00,55.1,32.3,29.44,West,270,2.9,9.2,42,0.00,,,0.39,WUHU216HW,2013-04-20 19:49:00,
2013-04-20 15:54:00,55.4,32.0,29.44,WNW,293,2.5,6.3,41,0.00,,,0.39,WUHU216HW,2013-04-20 19:54:00,
2013-04-20 15:59:00,55.4,33.2,29.44,NNW,338,1.6,6.7,43,0.00,,,0.39,WUHU216HW,2013-04-20 19:59:00,
2013-04-20 16:04:00,55.6,31.7,29.44,South,180,3.4,6.7,40,0.00,,,0.39,WUHU216HW,2013-04-20 20:04:00,
2013-04-20 16:09:00,55.3,31.9,29.44,WNW,293,7.2,7.2,41,0.00,,,0.39,WUHU216HW,2013-04-20 20:09:00,
2013-04-20 16:14:00,55.3,31.9,29.45,SW,225,7.4,7.6,41,0.00,,,0.39,WUHU216HW,2013-04-20 20:14:00,
2013-04-20 16:19:00,55.1,31.1,29.45,NNW,338,3.4,7.6,40,0.00,,,0.39,WUHU216HW,2013-04-20 20:19:00,
2013-04-20 16:25:00,55.1,31.1,29.45,WNW,293,6.9,7.4,40,0.00,,,0.39,WUHU216HW,2013-04-20 20:25:00,
2013-04-20 16:30:00,55.6,32.2,29.45,West,270,4.3,7.2,41,0.00,,,0.39,WUHU216HW,2013-04-20 20:30:00,
2013-04-20 16:35:00,56.3,32.3,29.45,NNW,338,1.8,6.9,40,0.00,,,0.39,WUHU216HW,2013-04-20 20:35:00,
2013-04-20 16:40:00,56.3,31.6,29.45,WSW,248,4.7,6.0,39,0.00,,,0.39,WUHU216HW,2013-04-20 20:40:00,
2013-04-20 16:45:00,55.8,30.4,29.45,West,270,4.0,7.4,38,0.00,,,0.39,WUHU216HW,2013-04-20 20:45:00,
2013-04-20 16:50:00,55.8,31.2,29.46,SSW,203,5.4,7.4,39,0.00,,,0.39,WUHU216HW,2013-04-20 20:50:00,
2013-04-20 16:55:00,56.3,31.6,29.46,WNW,293,0.4,9.8,39,0.00,,,0.39,WUHU216HW,2013-04-20 20:55:00,
2013-04-20 17:00:00,57.1,31.6,29.46,NW,315,4.0,9.8,38,0.00,,,0.39,WUHU216HW,2013-04-20 21:00:00,
2013-04-20 17:06:00,57.1,30.9,29.47,West,270,4.7,6.9,37,0.00,,,0.39,WUHU216HW,2013-04-20 21:06:00,
2013-04-20 17:11:00,56.9,30.0,29.47,North,0,1.1,8.5,36,0.00,,,0.39,WUHU216HW,2013-04-20 21:11:00,
2013-04-20 17:16:00,57.4,31.9,29.48,West,270,1.8,8.5,38,0.00,,,0.39,WUHU216HW,2013-04-20 21:16:00,
2013-04-20 17:21:00,57.4,30.5,29.48,NW,315,4.5,7.2,36,0.00,,,0.39,WUHU216HW,2013-04-20 21:21:00,
2013-04-20 17:26:00,56.2,30.8,29.48,West,270,4.5,7.2,38,0.00,,,0.39,WUHU216HW,2013-04-20 21:26:00,
2013-04-20 17:31:00,55.4,30.1,29.48,WSW,248,7.6,7.6,38,0.00,,,0.39,WUHU216HW,2013-04-20 21:31:00,
2013-04-20 17:36:00,54.5,29.4,29.49,NW,315,6.7,8.5,38,0.00,,,0.39,WUHU216HW,2013-04-20 21:36:00,
2013-04-20 17:42:00,54.7,29.4,29.49,NW,315,2.5,8.5,38,0.00,,,0.39,WUHU216HW,2013-04-20 21:42:00,
2013-04-20 17:47:00,55.1,29.1,29.49,WNW,293,4.9,8.5,37,0.00,,,0.39,WUHU216HW,2013-04-20 21:47:00,
2013-04-20 17:52:00,55.4,29.4,29.50,NW,315,4.7,8.5,37,0.00,,,0.39,WUHU216HW,2013-04-20 21:52:00,
2013-04-20 17:57:00,55.6,30.2,29.50,West,270,2.2,10.3,38,0.00,,,0.39,WUHU216HW,2013-04-20 21:57:00,
2013-04-20 18:02:00,56.2,30.1,29.51,NW,315,3.4,10.3,37,0.00,,,0.39,WUHU216HW,2013-04-20 22:02:00,
2013-04-20 18:07:00,55.8,29.7,29.51,NNW,338,6.5,7.6,37,0.00,,,0.39,WUHU216HW,2013-04-20 22:07:00,
2013-04-20 18:12:00,54.7,28.8,29.51,WNW,293,6.0,6.9,37,0.00,,,0.39,WUHU216HW,2013-04-20 22:12:00,
2013-04-20 18:17:00,54.2,29.7,29.51,SW,225,3.4,6.9,39,0.00,,,0.39,WUHU216HW,2013-04-20 22:17:00,
2013-04-20 18:22:00,53.8,30.1,29.52,WSW,248,2.2,6.3,40,0.00,,,0.39,WUHU216HW,2013-04-20 22:22:00,
2013-04-20 18:28:00,54.7,30.2,29.52,NW,315,5.8,5.8,39,0.00,,,0.39,WUHU216HW,2013-04-20 22:28:00,
2013-04-20 18:33:00,55.8,30.4,29.52,West,270,4.0,5.8,38,0.00,,,0.39,WUHU216HW,2013-04-20 22:33:00,
2013-04-20 18:38:00,55.8,30.4,29.53,North,0,2.9,7.6,38,0.00,,,0.39,WUHU216HW,2013-04-20 22:38:00,
2013-04-20 18:43:00,55.6,29.5,29.53,North,0,4.0,7.6,37,0.00,,,0.39,WUHU216HW,2013-04-20 22:43:00,
2013-04-20 18:48:00,55.1,30.5,29.53,NNW,338,7.6,7.6,39,0.00,,,0.39,WUHU216HW,2013-04-20 22:48:00,
2013-04-20 18:53:00,53.5,29.7,29.54,WNW,293,4.5,7.6,40,0.00,,,0.39,WUHU216HW,2013-04-20 22:53:00,
2013-04-20 18:58:00,52.4,29.4,29.54,West,270,7.4,7.4,41,0.00,,,0.39,WUHU216HW,2013-04-20 22:58:00,
2013-04-20 19:03:00,51.8,29.3,29.55,West,270,3.8,7.4,42,0.00,,,0.39,WUHU216HW,2013-04-20 23:03:00,
2013-04-20 19:09:00,51.5,29.1,29.55,NW,315,1.1,6.3,42,0.00,,,0.39,WUHU216HW,2013-04-20 23:09:00,
2013-04-20 19:14:00,50.9,29.2,29.56,West,270,1.1,9.2,43,0.00,,,0.39,WUHU216HW,2013-04-20 23:14:00,
2013-04-20 19:19:00,50.8,29.0,29.56,NW,315,8.5,9.2,43,0.00,,,0.39,WUHU216HW,2013-04-20 23:19:00,
2013-04-20 19:24:00,50.4,28.6,29.56,NNW,338,3.6,8.5,43,0.00,,,0.39,WUHU216HW,2013-04-20 23:24:00,
2013-04-20 19:29:00,50.0,28.9,29.56,NNE,23,2.7,6.7,44,0.00,,,0.39,WUHU216HW,2013-04-20 23:29:00,
2013-04-20 19:34:00,49.7,29.1,29.57,WSW,248,1.1,4.7,45,0.00,,,0.39,WUHU216HW,2013-04-20 23:34:00,
2013-04-20 19:39:00,49.3,28.7,29.57,NNW,338,2.0,4.7,45,0.00,,,0.39,WUHU216HW,2013-04-20 23:39:00,
2013-04-20 19:44:00,49.0,28.5,29.58,NNW,338,1.6,5.4,45,0.00,,,0.39,WUHU216HW,2013-04-20 23:44:00,
2013-04-20 19:49:00,48.8,28.8,29.58,West,270,2.9,5.4,46,0.00,,,0.39,WUHU216HW,2013-04-20 23:49:00,
2013-04-20 19:54:00,48.4,28.5,29.58,North,0,1.3,2.9,46,0.00,,,0.39,WUHU216HW,2013-04-20 23:54:00,
2013-04-20 20:00:00,48.2,28.3,29.59,NW,315,1.3,4.5,46,0.00,,,0.39,WUHU216HW,2013-04-21 00:00:00,
2013-04-20 20:05:00,47.9,27.9,29.60,NNW,338,1.8,5.4,46,0.00,,,0.39,WUHU216HW,2013-04-21 00:05:00,
2013-04-20 20:10:00,47.9,27.9,29.60,North,0,0.9,5.4,46,0.00,,,0.39,WUHU216HW,2013-04-21 00:10:00,
2013-04-20 20:15:00,47.5,28.2,29.61,WNW,293,1.1,4.5,47,0.00,,,0.39,WUHU216HW,2013-04-21 00:15:00,
2013-04-20 20:20:00,47.2,27.3,29.61,NW,315,1.6,4.5,46,0.00,,,0.39,WUHU216HW,2013-04-21 00:20:00,
2013-04-20 20:25:00,47.2,27.3,29.61,NNW,338,2.2,3.8,46,0.00,,,0.39,WUHU216HW,2013-04-21 00:25:00,
2013-04-20 20:30:00,47.0,27.1,29.62,NW,315,0.7,3.8,46,0.00,,,0.39,WUHU216HW,2013-04-21 00:30:00,
2013-04-20 20:35:00,46.6,26.8,29.62,NNW,338,1.8,3.4,46,0.00,,,0.39,WUHU216HW,2013-04-21 00:35:00,
2013-04-20 20:41:00,46.4,27.2,29.63,NNW,338,3.6,9.4,47,0.00,,,0.39,WUHU216HW,2013-04-21 00:41:00,
2013-04-20 20:46:00,46.3,27.0,29.63,NW,315,2.9,9.4,47,0.00,,,0.39,WUHU216HW,2013-04-21 00:46:00,
2013-04-20 20:51:00,46.1,26.8,29.64,NNW,338,2.5,5.1,47,0.00,,,0.39,WUHU216HW,2013-04-21 00:51:00,
2013-04-20 20:56:00,45.7,27.1,29.64,NNW,338,2.2,3.4,48,0.00,,,0.39,WUHU216HW,2013-04-21 00:56:00,
2013-04-20 21:01:00,45.5,26.9,29.65,WNW,293,2.5,3.4,48,0.00,,,0.39,WUHU216HW,2013-04-21 01:01:00,
2013-04-20 21:06:00,45.4,26.7,29.65,NW,315,3.4,4.7,48,0.00,,,0.39,WUHU216HW,2013-04-21 01:06:00,
2013-04-20 21:11:00,45.4,26.7,29.66,West,270,2.9,4.7,48,0.00,,,0.39,WUHU216HW,2013-04-21 01:11:00,
2013-04-20 21:17:00,45.4,26.7,29.66,NNW,338,1.1,5.6,48,0.00,,,0.39,WUHU216HW,2013-04-21 01:17:00,
2013-04-20 21:22:00,45.2,26.6,29.66,NNE,23,6.7,6.9,48,0.00,,,0.39,WUHU216HW,2013-04-21 01:22:00,
2013-04-20 21:27:00,45.0,27.0,29.66,West,270,3.4,7.4,49,0.00,,,0.39,WUHU216HW,2013-04-21 01:27:00,
2013-04-20 21:32:00,44.8,26.8,29.67,NNW,338,1.3,6.3,49,0.00,,,0.39,WUHU216HW,2013-04-21 01:32:00,
2013-04-20 21:37:00,44.5,27.0,29.67,NW,315,1.6,6.3,50,0.00,,,0.39,WUHU216HW,2013-04-21 01:37:00,
2013-04-20 21:42:00,44.3,26.8,29.68,NW,315,2.2,4.7,50,0.00,,,0.39,WUHU216HW,2013-04-21 01:42:00,
2013-04-20 21:47:00,44.1,27.2,29.68,NW,315,1.3,5.4,51,0.00,,,0.39,WUHU216HW,2013-04-21 01:47:00,
2013-04-20 21:53:00,43.9,27.0,29.68,NNW,338,2.0,5.4,51,0.00,,,0.39,WUHU216HW,2013-04-21 01:53:00,
2013-04-20 21:58:00,43.7,26.8,29.69,NNE,23,4.7,7.8,51,0.00,,,0.39,WUHU216HW,2013-04-21 01:58:00,
2013-04-20 22:03:00,43.7,26.8,29.69,NW,315,5.6,7.8,51,0.00,,,0.39,WUHU216HW,2013-04-21 02:03:00,
2013-04-20 22:08:00,43.6,26.6,29.69,NNE,23,0.4,6.3,51,0.00,,,0.39,WUHU216HW,2013-04-21 02:08:00,
2013-04-20 22:13:00,43.4,26.9,29.69,WNW,293,3.6,6.3,52,0.00,,,0.39,WUHU216HW,2013-04-21 02:13:00,
2013-04-20 22:18:00,43.2,26.7,29.70,NW,315,2.0,4.9,52,0.00,,,0.39,WUHU216HW,2013-04-21 02:18:00,
2013-04-20 22:23:00,42.8,26.5,29.71,NNW,338,2.5,4.7,52,0.00,,,0.39,WUHU216HW,2013-04-21 02:23:00,
2013-04-20 22:28:00,42.7,26.3,29.71,West,270,6.3,6.3,52,0.00,,,0.39,WUHU216HW,2013-04-21 02:28:00,
2013-04-20 22:34:00,42.5,25.7,29.71,NW,315,6.5,6.5,51,0.00,,,0.39,WUHU216HW,2013-04-21 02:34:00,
2013-04-20 22:39:00,42.3,25.0,29.71,North,0,4.5,6.5,50,0.00,,,0.39,WUHU216HW,2013-04-21 02:39:00,
2013-04-20 22:44:00,42.1,24.3,29.72,NW,315,5.6,8.5,49,0.00,,,0.39,WUHU216HW,2013-04-21 02:44:00,
2013-04-20 22:49:00,41.8,23.9,29.72,SW,225,4.9,8.5,49,0.00,,,0.39,WUHU216HW,2013-04-21 02:49:00,
2013-04-20 22:54:00,41.4,23.6,29.72,West,270,6.7,10.5,49,0.00,,,0.39,WUHU216HW,2013-04-21 02:54:00,
2013-04-20 22:59:00,41.2,23.4,29.72,NNW,338,9.2,10.7,49,0.00,,,0.39,WUHU216HW,2013-04-21 02:59:00,
2013-04-20 23:04:00,41.0,22.7,29.72,NW,315,7.6,10.7,48,0.00,,,0.39,WUHU216HW,2013-04-21 03:04:00,
2013-04-20 23:09:00,40.9,22.6,29.72,NNW,338,3.4,10.1,48,0.00,,,0.39,WUHU216HW,2013-04-21 03:09:00,
2013-04-20 23:14:00,40.7,22.4,29.72,NW,315,6.0,10.1,48,0.00,,,0.39,WUHU216HW,2013-04-21 03:14:00,
2013-04-20 23:19:00,40.5,22.2,29.73,ENE,68,2.5,8.3,48,0.00,,,0.39,WUHU216HW,2013-04-21 03:19:00,
2013-04-20 23:25:00,40.3,22.1,29.73,WNW,293,4.3,7.8,48,0.00,,,0.39,WUHU216HW,2013-04-21 03:25:00,
2013-04-20 23:30:00,40.0,21.8,29.73,West,270,3.6,5.8,48,0.00,,,0.39,WUHU216HW,2013-04-21 03:30:00,
2013-04-20 23:35:00,40.0,21.8,29.73,NNW,338,5.4,7.6,48,0.00,,,0.39,WUHU216HW,2013-04-21 03:35:00,
2013-04-20 23:40:00,39.6,22.0,29.73,NW,315,4.5,7.6,49,0.00,,,0.39,WUHU216HW,2013-04-21 03:40:00,
2013-04-20 23:45:00,39.4,21.2,29.74,WNW,293,6.9,6.9,48,0.00,,,0.39,WUHU216HW,2013-04-21 03:45:00,
2013-04-20 23:50:00,39.2,21.6,29.74,NNW,338,6.0,8.9,49,0.00,,,0.39,WUHU216HW,2013-04-21 03:50:00,
2013-04-20 23:55:00,39.2,21.6,29.75,NW,315,3.1,8.9,49,0.00,,,0.39,WUHU216HW,2013-04-21 03:55:00,